This demonstration page uses our WeatherBlox Daily Observations layout. Learn more.

Left ArrowRight Arrow

Hourly Observations for November 20, 2018

Temp ( °F °C ) Dew Point ( °F °C ) Humidity (%) Winds ( mph kmh ) Pressure ( in mb ) Visibility ( mi km ) Precip ( " mm )
12:53 am 00:53 Clear 34 1.1 26 -3.3 73 73 SW 17 28 30.10 1019 10 16 N/A
1:53 am 01:53 Clear 31 -0.6 26 -3.3 82 82 WSW 13 20 30.10 1019 10 16 N/A
2:53 am 02:53 Clear 31 -0.6 25 -3.9 79 79 WSW 10 17 30.10 1019 10 16 N/A
3:53 am 03:53 Clear 30 -1.1 25 -3.9 82 82 SW 10 17 30.09 1019 10 16 N/A
4:53 am 04:53 Clear 31 -0.6 25 -3.9 79 79 WSW 13 20 30.09 1019 10 16 N/A
5:53 am 05:53 Clear 31 -0.6 25 -3.9 79 79 SW 17 28 30.08 1019 10 16 N/A
6:53 am 06:53 Clear 31 -0.6 26 -3.3 82 82 WSW 9 15 30.08 1019 10 16 N/A
7:53 am 07:53 Sunny 32 undefined 26 -3.3 79 79 WSW 8 13 30.08 1019 10 16 N/A
8:53 am 08:53 Sunny 40 4.4 28 -2.2 63 63 WSW 14 22 30.05 1018 10 16 N/A
9:53 am 09:53 Sunny 44 6.7 28 -2.2 53 53 SW 21 33 30.04 1017 10 16 N/A
10:53 am 10:53 Sunny 47 8.3 29 -1.7 50 50 SW 22 35 30.03 1017 10 16 N/A
11:53 am 11:53 Sunny 49 9.4 30 -1.1 48 48 SW 24 39 30.01 1016 10 16 N/A
12:53 pm 12:53 Sunny 51 10.6 32 undefined 48 48 SW 25 41 29.97 1015 10 16 N/A
1:53 pm 13:53 Sunny 52 11.1 33 0.6 49 49 SW 17 28 29.96 1015 10 16 N/A
2:53 pm 14:53 Sunny 54 12.2 33 0.6 45 45 SW 22 35 29.95 1014 10 16 N/A
3:53 pm 15:53 Sunny 52 11.1 34 1.1 50 50 WSW 13 20 29.95 1014 10 16 N/A
4:53 pm 16:53 Clear 44 6.7 32 undefined 63 63 SW 13 20 29.96 1015 10 16 N/A
5:53 pm 17:53 Clear 38 3.3 30 -1.1 73 73 SW 14 22 29.97 1015 10 16 N/A
6:53 pm 18:53 Clear 37 2.8 30 -1.1 76 76 SW 12 19 29.98 1015 10 16 N/A
7:53 pm 19:53 Clear 38 3.3 29 -1.7 70 70 SW 9 15 29.99 1016 10 16 N/A
8:53 pm 20:53 Clear 33 0.6 28 -2.2 82 82 W 10 17 29.98 1015 10 16 N/A
9:53 pm 21:53 Clear 32 undefined 27 -2.8 82 82 W 9 15 29.98 1015 10 16 N/A
10:53 pm 22:53 Clear 29 -1.7 26 -3.3 89 89 W 8 13 30.00 1016 10 16 N/A
11:53 pm 23:53 Clear 30 -1.1 26 -3.3 85 85 SW 13 20 29.99 1016 10 16 N/A

Powered by AerisWeather